Weather History for Annette Island, AK

Change the Weather History Date:

Friday, July 26, 2013

  Actual Average Record
Temperature  
Mean Temperature 61 °F 60 °F  
Max Temperature 68 °F 65 °F 84 °F (1971)
Min Temperature 53 °F 54 °F 46 °F (1974)
Degree Days  
Heating Degree Days 4    
Month to date heating degree days 148 178  
Since 1 June heating degree days 368 476  
Since 1 July heating degree days 148 178  
Cooling Degree Days 0    
Month to date cooling degree days 4  
Year to date cooling degree days 10  
Since 1 June cooling degree days 10  
Growing Degree Days 10 (Base 50)    
Moisture  
Dew Point 54 °F    
Average Humidity 0    
Maximum Humidity 0    
Minimum Humidity 0    
Precipitation  
Precipitation 0.33 in 0.16 in 1.70 in (1965)
Month to date precipitation 3.60 3.87  
Year to date precipitation 46.89 47.17  
Snow  
Snow 0.00 in 0.00 in 0.00 in (2014)
Month to date snowfall 0.0  
Since 1 June snowfall 0.0 0.0  
Since 1 July snowfall 0.0  
Snow Depth 0.00 in    
Sea Level Pressure  
Sea Level Pressure 30.25 in    
Wind  
Wind Speed 2 mph (West)    
Max Wind Speed 8 mph    
Max Gust Speed 12 mph    
Visibility 9 miles    
Events Rain    
T = Trace of Precipitation, MM = Missing Value Source: NWS Daily Summary

Daily Weather History Graph

Daily Weather History Graph

Search for Another Location

Airport:

Trip Planner

Search our weather history database for the weather conditions in past years. The results will help you decide how hot, cold, wet, or windy it might be!

Date:

Astronomy

Jul. 26, 2013 Rise Set
Actual Time 4:45 AM AKDT 8:59 PM AKDT
Civil Twilight 3:56 AM AKDT 9:47 PM AKDT
Nautical Twilight 2:42 AM AKDT 10:59 PM AKDT
Astronomical Twilight 1:25 AM AKDT 12:20 AM AKDT
Moon 10:12 PM AKDT (7/26) 10:29 AM AKDT (7/26)
Length of Visible Light 17h 50m
Length of Day
16h 14m
Waning Gibbous, 79% of the Moon is Illuminated
Jul 26
Waning Gibbous
Jul 29
Last Quarter
Aug 6
New
Aug 14
First Quarter
Aug 20
Full

Hourly Weather History & Observations

Time (AKDT) Temp. Dew Point Humidity Pressure Visibility Wind Dir Wind Speed Gust Speed Precip Events Conditions
12:02 AM 55.4 °F 53.6 °F 94% 30.21 in 10.0 mi Calm Calm - 0.00 in Rain Light Rain
12:17 AM 55.4 °F 53.6 °F 94% 30.21 in 10.0 mi Calm Calm - 0.00 in Rain Light Rain
12:27 AM 55.4 °F 53.6 °F 94% 30.21 in 10.0 mi Calm Calm - 0.01 in Rain Light Rain
12:39 AM 55.4 °F 53.6 °F 94% 30.21 in 10.0 mi Calm Calm - 0.01 in Rain Light Rain
12:53 AM 55.9 °F 54.0 °F 93% 30.22 in 10.0 mi Calm Calm - 0.02 in Rain Light Rain
1:16 AM 55.4 °F 53.6 °F 94% 30.22 in 6.0 mi Calm Calm - 0.05 in Rain Rain
1:34 AM 55.4 °F 55.4 °F 100% 30.22 in 7.0 mi Calm Calm - 0.08 in Rain Rain
1:53 AM 55.9 °F 55.0 °F 97% 30.22 in 8.0 mi Calm Calm - 0.12 in Rain Rain
2:21 AM 55.4 °F 53.6 °F 94% 30.21 in 7.0 mi Calm Calm - 0.06 in Rain Rain
2:36 AM 55.4 °F 53.6 °F 94% 30.21 in 6.0 mi Calm Calm - 0.11 in Rain Rain
2:53 AM 55.0 °F 54.0 °F 96% 30.22 in 6.0 mi Calm Calm - 0.16 in Rain Rain
3:00 AM 55.4 °F 53.6 °F 94% 30.21 in 6.0 mi Calm Calm - 0.02 in Rain Rain
3:27 AM 55.4 °F 53.6 °F 94% 30.21 in 10.0 mi Calm Calm - 0.05 in Rain Light Rain
3:33 AM 55.4 °F 53.6 °F 94% 30.21 in 10.0 mi Calm Calm - 0.06 in Rain Light Rain
3:53 AM 55.0 °F 54.0 °F 96% 30.22 in 10.0 mi Calm Calm - 0.06 in Rain Light Rain
4:53 AM 55.0 °F 55.0 °F 100% 30.22 in 8.0 mi Calm Calm - 0.00 in   Overcast
5:41 AM 55.4 °F 53.6 °F 94% 30.22 in 10.0 mi Calm Calm - N/A   Mostly Cloudy
5:53 AM 55.0 °F 55.0 °F 100% 30.23 in 10.0 mi Calm Calm - N/A   Mostly Cloudy
6:53 AM 55.9 °F 55.0 °F 97% 30.25 in 10.0 mi West 3.5 mph - N/A   Mostly Cloudy
7:53 AM 57.0 °F 55.9 °F 96% 30.25 in 10.0 mi West 3.5 mph - N/A   Overcast
8:53 AM 59.0 °F 55.9 °F 90% 30.26 in 10.0 mi Calm Calm - N/A   Mostly Cloudy
9:27 AM 57.2 °F 55.4 °F 94% 30.26 in 10.0 mi West 3.5 mph - N/A   Mostly Cloudy
9:53 AM 62.1 °F 57.0 °F 84% 30.27 in 10.0 mi NW 4.6 mph - N/A   Mostly Cloudy
10:24 AM 62.6 °F 55.4 °F 77% 30.26 in 10.0 mi Variable 3.5 mph - N/A   Mostly Cloudy
10:53 AM 64.9 °F 55.9 °F 73% 30.27 in 10.0 mi Calm Calm - N/A   Mostly Cloudy
11:53 AM 64.9 °F 55.9 °F 73% 30.27 in 10.0 mi WNW 5.8 mph - N/A   Clear
12:53 PM 66.9 °F 55.0 °F 66% 30.28 in 10.0 mi West 4.6 mph - N/A   Mostly Cloudy
1:53 PM 64.0 °F 53.1 °F 67% 30.28 in 10.0 mi Variable 4.6 mph - N/A   Mostly Cloudy
2:53 PM 64.9 °F 52.0 °F 63% 30.29 in 10.0 mi SW 5.8 mph - N/A   Scattered Clouds
3:53 PM 64.9 °F 53.1 °F 65% 30.29 in 10.0 mi Variable 3.5 mph - N/A   Scattered Clouds
4:53 PM 66.9 °F 54.0 °F 63% 30.28 in 10.0 mi Variable 3.5 mph - N/A   Overcast
5:53 PM 66.0 °F 54.0 °F 65% 30.29 in 10.0 mi Calm Calm - N/A   Mostly Cloudy
6:53 PM 64.0 °F 53.1 °F 67% 30.28 in 10.0 mi Calm Calm - N/A   Overcast
7:53 PM 63.0 °F 53.1 °F 70% 30.28 in 10.0 mi Calm Calm - N/A   Mostly Cloudy
8:53 PM 60.1 °F 52.0 °F 75% 30.28 in 10.0 mi Calm Calm - N/A   Clear
9:53 PM 55.9 °F 53.1 °F 90% 30.29 in 10.0 mi West 3.5 mph - N/A   Clear
10:53 PM 55.0 °F 52.0 °F 89% 30.30 in 10.0 mi Calm Calm - N/A   Clear
11:53 PM 54.0 °F 53.1 °F 97% 30.30 in 10.0 mi Calm Calm - N/A   Mostly Cloudy